Weather History for Kununurra, WE

Change the Weather History Date:

Tuesday, November 12, 2013

  Actual Average Record
Temperature  
Mean Temperature 90 °F -  
Max Temperature 105 °F - - ()
Min Temperature 76 °F - - ()
Cooling Degree Days 26    
Growing Degree Days 40 (Base 50)    
Moisture  
Dew Point 69 °F    
Average Humidity 57    
Maximum Humidity 94    
Minimum Humidity 15    
Precipitation  
Precipitation 0.00 in - - ()
Sea Level Pressure  
Sea Level Pressure 29.70 in    
Wind  
Wind Speed 5 mph ()    
Max Wind Speed 24 mph    
Max Gust Speed -    
Visibility 6.3 miles    
Events      
T = Trace of Precipitation, MM = Missing Value Source: Averaged Metar Reports

Daily Weather History Graph

Daily Weather History Graph

Search for Another Location

Airport:

Trip Planner

Search our weather history database for the weather conditions in past years. The results will help you decide how hot, cold, wet, or windy it might be!

Date:

Astronomy

Nov. 12, 2013 Rise Set
Actual Time 4:44 AM WST 5:33 PM WST
Civil Twilight 4:22 AM WST 5:56 PM WST
Nautical Twilight 3:55 AM WST 6:23 PM WST
Astronomical Twilight 3:28 AM WST 6:50 PM WST
Moon 12:56 PM WST (11/12) 12:37 AM WST (11/12)
Length of Visible Light 13h 34m
Length of Day
12h 48m
Waxing Gibbous, 71% of the Moon is Illuminated
Nov 12
Waxing Gibbous
Nov 17
Full
Nov 26
Last Quarter
Dec 3
New
Dec 9
First Quarter

Hourly Weather History & Observations

Time (WST) Temp. Heat Index Dew Point Humidity Pressure Visibility Wind Dir Wind Speed Gust Speed Precip Events Conditions
12:00 AM 80.6 °F 86.2 °F 75.2 °F 84% 29.71 in 6.2 mi Calm Calm - N/A   Unknown
12:30 AM 78.8 °F - 75.2 °F 89% 29.71 in 6.2 mi North 2.3 mph - N/A   Unknown
1:00 AM 78.8 °F - 75.2 °F 89% 29.68 in 6.2 mi North 2.3 mph - N/A   Unknown
1:30 AM 78.8 °F - 75.2 °F 89% 29.68 in 6.2 mi North 2.3 mph - N/A   Unknown
2:00 AM 79 °F - 75 °F 84% 29.70 in - North 4.6 mph - -  
2:00 AM 78.8 °F - 75.2 °F 89% 29.68 in 6.2 mi North 4.6 mph - N/A   Unknown
2:30 AM 77.0 °F - 75.2 °F 94% 29.68 in 6.2 mi North 3.5 mph - N/A   Unknown
3:00 AM 78 °F - 76 °F 91% 29.70 in - ENE 3.5 mph - -  
3:00 AM 78.8 °F - 75.2 °F 89% 29.68 in 6.2 mi ENE 3.5 mph - N/A   Unknown
3:30 AM 78.8 °F - 75.2 °F 89% 29.71 in 6.2 mi Calm Calm - N/A   Unknown
4:00 AM 78.8 °F - 75.2 °F 89% 29.71 in 6.2 mi Calm Calm - N/A   Unknown
4:30 AM 77.0 °F - 75.2 °F 94% 29.71 in 6.2 mi Calm Calm - N/A   Unknown
5:00 AM 77 °F - 75 °F 91% 29.73 in - Calm Calm - -  
5:00 AM 77.0 °F - 75.2 °F 94% 29.74 in 6.2 mi Calm Calm - N/A   Unknown
5:30 AM 78.8 °F - 75.2 °F 89% 29.74 in 6.2 mi Calm Calm - N/A   Unknown
6:00 AM 81 °F - 77 °F 85% 29.75 in 12 mi North 2.3 mph - -   Partly Cloudy
6:00 AM 80.6 °F 87.1 °F 77.0 °F 89% 29.74 in 6.2 mi North 2.3 mph - N/A   Unknown
6:30 AM 84.2 °F 94.1 °F 77.0 °F 79% 29.77 in 6.2 mi North 4.6 mph - N/A   Unknown
7:00 AM 86.0 °F 96.9 °F 77.0 °F 74% 29.77 in 6.2 mi NE 3.5 mph - N/A   Unknown
7:30 AM 87.8 °F 95.6 °F 73.4 °F 62% 29.77 in 6.2 mi North 5.8 mph - N/A   Unknown
8:00 AM 90 °F - 71 °F 44% 29.77 in - NE 8.1 mph - -  
8:00 AM 89.6 °F 96.2 °F 71.6 °F 55% 29.77 in 6.2 mi NE 8.1 mph - N/A   Unknown
8:30 AM 91.4 °F 96.8 °F 69.8 °F 49% 29.77 in 6.2 mi NNE 6.9 mph - N/A   Unknown
9:00 AM 92 °F - 71 °F 41% 29.76 in 12 mi NE 5.8 mph - -   Partly Cloudy
9:00 AM 91.4 °F 98.4 °F 71.6 °F 52% 29.77 in 6.2 mi NE 5.8 mph - N/A   Unknown
9:30 AM 93.2 °F 100.5 °F 71.6 °F 49% 29.74 in 6.2 mi NE 8.1 mph - N/A   Unknown
10:00 AM 96.8 °F 100.7 °F 66.2 °F 37% 29.74 in 6.2 mi North 11.5 mph - N/A   Scattered Clouds
10:30 AM 96.8 °F 101.8 °F 68.0 °F 39% 29.71 in 6.2 mi North 6.9 mph - N/A   Unknown
11:00 AM 98 °F - 65 °F 25% 29.70 in - North 8.1 mph - -  
11:00 AM 96.8 °F 100.7 °F 66.2 °F 37% 29.71 in 6.2 mi North 8.1 mph - N/A   Unknown
11:30 AM 98.6 °F 101.0 °F 64.4 °F 32% 29.68 in 6.2 mi NNE 8.1 mph - N/A   Unknown
12:00 PM 100 °F - 62 °F 20% 29.67 in - East 5.8 mph - -  
12:00 PM 100.4 °F 102.4 °F 62.6 °F 29% 29.65 in 6.2 mi East 5.8 mph - N/A   Unknown
12:30 PM 100.4 °F 101.3 °F 60.8 °F 27% 29.65 in 6.2 mi NE 6.9 mph - N/A   Scattered Clouds
1:00 PM 100.4 °F 100.2 °F 59.0 °F 25% 29.62 in 6.2 mi East 6.9 mph - N/A   Scattered Clouds
1:30 PM 102.2 °F 102.4 °F 59.0 °F 24% 29.62 in 6.2 mi NNE 9.2 mph - N/A   Scattered Clouds
2:00 PM 103 °F - 58 °F 15% 29.61 in - NNW 5.8 mph - -  
2:00 PM 102.2 °F 102.4 °F 59.0 °F 24% 29.59 in 6.2 mi NNW 5.8 mph - N/A   Unknown
2:30 PM 102.2 °F 101.4 °F 57.2 °F 22% 29.59 in 6.2 mi SE 5.8 mph - N/A   Unknown
3:00 PM 102 °F - 58 °F 15% 29.58 in 12 mi North 4.6 mph - -   Partly Cloudy
3:00 PM 102.2 °F 101.4 °F 57.2 °F 22% 29.59 in 6.2 mi North 4.6 mph - N/A   Unknown
3:08 PM 102.2 °F 102.4 °F 59.0 °F 24% 29.59 in 6.2 mi NNE 17.3 mph - N/A   Scattered Clouds
3:50 PM 91.4 °F 94.0 °F 66.2 °F 43% 29.62 in 6.2 mi ENE 23.0 mph - N/A   Mostly Cloudy
4:04 PM 89.6 °F 92.2 °F 66.2 °F 46% 29.65 in 1.6 mi ENE 23.0 mph - N/A   Mostly Cloudy
4:07 PM 89.6 °F 91.1 °F 64.4 °F 43% 29.65 in 1.2 mi NNE 24.2 mph - N/A   Overcast
4:14 PM 84.2 °F 85.6 °F 64.4 °F 51% 29.65 in 3.7 mi North 20.7 mph - N/A   Mostly Cloudy
4:24 PM 84.2 °F 85.6 °F 64.4 °F 51% 29.68 in 6.2 mi North 19.6 mph - N/A   Scattered Clouds
4:30 PM 84.2 °F 85.6 °F 64.4 °F 51% 29.68 in 6.2 mi North 19.6 mph - N/A   Scattered Clouds
5:00 PM 84 °F - 65 °F 43% 29.68 in - NNE 11.5 mph - -  
5:00 PM 84.2 °F 85.6 °F 64.4 °F 51% 29.68 in 6.2 mi NNE 11.5 mph - N/A   Mostly Cloudy
5:30 PM 82.4 °F 84.6 °F 66.2 °F 58% 29.62 in 6.2 mi North 15.0 mph - N/A   Overcast
6:00 PM 82 °F - 67 °F 53% 29.64 in - NW 10.4 mph - -  
6:00 PM 82.4 °F 85.4 °F 68.0 °F 62% 29.65 in 6.2 mi NW 10.4 mph - N/A   Unknown
6:30 PM 84.2 °F 86.6 °F 66.2 °F 55% 29.68 in 6.2 mi NE 4.6 mph - N/A   Unknown
7:00 PM 82.4 °F 85.4 °F 68.0 °F 62% 29.68 in 6.2 mi WNW 3.5 mph - N/A   Unknown
7:30 PM 82.4 °F 85.4 °F 68.0 °F 62% 29.71 in 6.2 mi North 4.6 mph - N/A   Unknown
8:00 PM 82 °F - 67 °F 51% 29.72 in - NNE 6.9 mph - -  
8:00 PM 82.4 °F 84.6 °F 66.2 °F 58% 29.71 in 6.2 mi NNE 6.9 mph - N/A   Unknown
8:30 PM 80.6 °F 83.2 °F 68.0 °F 65% 29.71 in 6.2 mi North 8.1 mph - N/A   Unknown
9:00 PM 80 °F - 69 °F 61% 29.73 in - North 5.8 mph - -  
9:00 PM 80.6 °F 83.2 °F 68.0 °F 65% 29.74 in 6.2 mi North 5.8 mph - N/A   Unknown
9:30 PM 86.0 °F 88.2 °F 66.2 °F 51% 29.77 in 6.2 mi East 11.5 mph - N/A   Scattered Clouds
10:00 PM 86.0 °F 90.4 °F 69.8 °F 58% 29.77 in 6.2 mi NNE 8.1 mph - N/A   Mostly Cloudy
10:30 PM 84.2 °F 89.6 °F 71.6 °F 66% 29.77 in 6.2 mi WNW 4.6 mph - N/A   Mostly Cloudy
11:00 PM 85 °F - 72 °F 56% 29.76 in - NE 10.4 mph - -  
11:00 PM 84.2 °F 89.6 °F 71.6 °F 66% 29.74 in 6.2 mi NE 10.4 mph - N/A   Scattered Clouds
11:30 PM 84.2 °F 89.6 °F 71.6 °F 66% 29.74 in 6.2 mi North 3.5 mph - N/A   Scattered Clouds